Погода в Литоне

Австралия     34°33′02″S   146°24′18″E
темп.,
°C
ветер,
м/с
пор.,
м/с
влажн.,
%
обл.,
%
осадки,
мм/ч
давл.,
гПа
погр.,
м
23 октября, сб
сб2323:00+17св37523 0.0 1012105
02:00+16св4126254 0.0 1011215
05:00+14ююв127025 0.0 101239
08:00+20ссз2349100 0.0 1013173
11:00+23ююз2239100 0.0 1012632
14:00+28зюз783170 0.0 10112092
17:00+26зюз88295 0.0 10102423
20:00+19юз812433 0.0 1013940
24 октября, вс
вс2423:00+13ююз513690 0.0 1016564
02:00+10юз512810 0.0 1017389
05:00+8юз511840 0.0 1017373
08:00+10юз610720 0.0 1020498
11:00+18юз78320 0.0 10191399
14:00+21юз89210 0.0 10172271
17:00+21юз89210 0.0 10152450
20:00+14ююз49343 0.0 1017173
25 октября, пн
пн2523:00+9ююз310550 0.0 1019225
02:00+6юз310650 0.0 1018265
05:00+4зюз39800 0.0 1018194
08:00+8юз58680 0.0 1020441
11:00+15юз57370 0.0 10181311
14:00+20юз67230 0.0 10162074
17:00+21юз77210 0.0 10142348
20:00+14ююз48360 0.0 1016107
26 октября, вт
вт2623:00+10ю35560 0.0 101862
02:00+7ююз11680 0.0 101810
05:00+5зюз11740 0.0 101910
08:00+10зсз22500 0.0 1020191
11:00+19з33280 0.0 10191143
14:00+24зюз33150 0.0 10171811
17:00+26зюз33120 0.0 10152093
20:00+17юз33201 0.0 101718
27 октября, ср
ср2723:00+12ююв2229100 0.0 101810
02:00+11в11380 0.0 101710
05:00+10всв22500 0.0 101711
08:00+15св35400 0.0 1018180
11:00+26с45155 0.0 10181411
14:00+30сз44105 0.0 10152058
17:00+30ссз44105 0.0 10132108
20:00+22сз221930 0.0 101511